軌道要素
Epoch 2024 Mar. 31.0 TT = JDT 2460400.5
T 2023 Sept. 17.64327 TT Rudenko
q 0.2250723 (2000.0) P Q
z +0.0175231 Peri. 116.29560 +0.38236316 -0.62767901
+/-0.0000026 Node 66.83756 -0.85518876 -0.51831090
e 0.9960560 Incl. 132.47689 +0.34992941 -0.58083807
>From 780 observations 2023 Jan. 19-2024 Mar. 15, mean residual 0".7.
|